FDX3256 VGHS-UBBB

Flight info

Callsign FDX3256
Flight time N/A
Altitude 30000
Route DAC G463 BIKIK A201 MONDA/N0500F320 A201 PPT J71 KEVOD Z2 JAL R594 DPN G333 MERUN G452 KALAT/N0495F340 G452 ZDN N319 ULDUS N39 MOSUM
Aircraft MD11/H-SDE1E2E3FGHIJ2J3J4J5M1RWXY/LB1D1

Departure

Time 2026-05-09 02:46
Airport Hazrat Shahjalal International Airport (VGHS)

Arrival

Time N/A
Airport Heydar Aliyev International Airport (UBBB)
Time Latitude Longitude Altitude Speed Heading
2026-05-09 02:31 23.85022 90.40195 43 ft 0 kts 54°
2026-05-09 02:35 23.85020 90.40191 43 ft 3 kts 53°
2026-05-09 02:35 23.85003 90.40168 41 ft 4 kts 44°
2026-05-09 02:35 23.84982 90.40149 40 ft 4 kts 35°
2026-05-09 02:35 23.84960 90.40133 40 ft 3 kts 26°
2026-05-09 02:36 23.84959 90.40133 40 ft 0 kts 25°
2026-05-09 02:39 23.84980 90.40140 43 ft 6 kts 11°
2026-05-09 02:39 23.85034 90.40118 43 ft 10 kts 328°
2026-05-09 02:39 23.85083 90.40080 43 ft 7 kts 324°
2026-05-09 02:39 23.85131 90.40042 41 ft 10 kts 324°
2026-05-09 02:40 23.85174 90.39995 43 ft 6 kts 288°
2026-05-09 02:40 23.85165 90.39959 42 ft 6 kts 244°
2026-05-09 02:40 23.85126 90.39903 43 ft 11 kts 231°
2026-05-09 02:40 23.85115 90.39837 42 ft 7 kts 299°
2026-05-09 02:41 23.85165 90.39793 42 ft 12 kts 326°
2026-05-09 02:41 23.85244 90.39726 43 ft 17 kts 323°
2026-05-09 02:41 23.85355 90.39636 43 ft 22 kts 324°
2026-05-09 02:41 23.85495 90.39526 43 ft 27 kts 324°
2026-05-09 02:42 23.85642 90.39409 43 ft 25 kts 324°
2026-05-09 02:42 23.85734 90.39336 43 ft 8 kts 324°
2026-05-09 02:42 23.85767 90.39293 43 ft 7 kts 284°
2026-05-09 02:42 23.85746 90.39238 42 ft 10 kts 234°
2026-05-09 02:43 23.85695 90.39161 43 ft 15 kts 233°
2026-05-09 02:43 23.85631 90.39067 43 ft 8 kts 233°
2026-05-09 02:43 23.85622 90.39053 42 ft 0 kts 233°
2026-05-09 02:44 23.85621 90.39052 42 ft 1 kts 233°
2026-05-09 02:44 23.85606 90.39029 43 ft 7 kts 233°
2026-05-09 02:44 23.85561 90.38962 43 ft 14 kts 234°
2026-05-09 02:44 23.85501 90.38897 42 ft 10 kts 209°
2026-05-09 02:45 23.85448 90.38899 43 ft 6 kts 154°
2026-05-09 02:45 23.85415 90.38922 41 ft 5 kts 147°
2026-05-09 02:45 23.85407 90.38929 43 ft 0 kts 144°
2026-05-09 02:45 23.85402 90.38933 43 ft 6 kts 144°
2026-05-09 02:46 23.85234 90.39066 42 ft 66 kts 143°
2026-05-09 02:46 23.84655 90.39525 44 ft 138 kts 143°
2026-05-09 02:46 23.83726 90.40275 59 ft 187 kts 142°
2026-05-09 02:46 23.82677 90.41119 661 ft 188 kts 142°
2026-05-09 02:47 23.81619 90.41971 1394 ft 189 kts 141°
2026-05-09 02:47 23.80549 90.42834 2052 ft 195 kts 144°
2026-05-09 02:47 23.79343 90.43534 2588 ft 199 kts 160°
2026-05-09 02:47 23.77980 90.43804 3066 ft 201 kts 181°
2026-05-09 02:48 23.76565 90.43531 3293 ft 216 kts 202°
2026-05-09 02:48 23.75303 90.42632 3611 ft 219 kts 226°
2026-05-09 02:48 23.74461 90.41257 3967 ft 220 kts 250°
2026-05-09 02:48 23.74178 90.39590 4206 ft 234 kts 273°
2026-05-09 02:49 23.74601 90.37815 4382 ft 253 kts 299°
2026-05-09 02:49 23.75716 90.36263 4532 ft 269 kts 315°
2026-05-09 02:49 23.77130 90.34805 4674 ft 292 kts 317°
2026-05-09 02:49 23.78686 90.33281 5031 ft 302 kts 318°
2026-05-09 02:50 23.80261 90.31744 5380 ft 304 kts 318°
2026-05-09 02:50 23.81798 90.30203 5762 ft 305 kts 315°
2026-05-09 02:50 23.83375 90.28627 5921 ft 309 kts 317°
2026-05-09 02:50 23.84984 90.27066 5858 ft 311 kts 316°
2026-05-09 02:51 23.86543 90.25503 6748 ft 301 kts 316°
2026-05-09 02:51 23.87959 90.23766 7231 ft 309 kts 301°
2026-05-09 02:51 23.88931 90.21659 7914 ft 312 kts 291°
2026-05-09 02:51 23.89456 90.20192 8379 ft 314 kts 289°
2026-05-09 02:52 23.90440 90.17173 9321 ft 317 kts 288°
2026-05-09 02:52 23.90922 90.15660 9796 ft 319 kts 287°
2026-05-09 02:52 23.91927 90.12515 10207 ft 342 kts 288°
2026-05-09 02:52 23.92459 90.10859 10297 ft 355 kts 288°
2026-05-09 02:53 23.93288 90.08295 10891 ft 359 kts 288°
2026-05-09 02:53 23.94127 90.05718 11555 ft 361 kts 288°
2026-05-09 02:53 23.94974 90.03123 12215 ft 363 kts 288°
2026-05-09 02:53 23.96105 89.99663 13085 ft 367 kts 288°
2026-05-09 02:54 23.97007 89.97047 13716 ft 369 kts 289°
2026-05-09 02:54 23.97640 89.95277 14084 ft 371 kts 289°
2026-05-09 02:54 23.98597 89.92639 14594 ft 374 kts 290°
2026-05-09 02:54 23.99555 89.90019 15082 ft 377 kts 290°
2026-05-09 02:55 24.00532 89.87344 15580 ft 380 kts 289°
2026-05-09 02:55 24.01517 89.84646 16048 ft 383 kts 289°
2026-05-09 02:55 24.02506 89.81931 16538 ft 386 kts 289°
2026-05-09 02:55 24.03502 89.79194 17010 ft 388 kts 289°
2026-05-09 02:56 24.04495 89.76460 17451 ft 391 kts 289°
2026-05-09 02:56 24.05451 89.73829 17891 ft 394 kts 289°
2026-05-09 02:56 24.06465 89.71034 18327 ft 397 kts 289°
2026-05-09 02:56 24.07486 89.68219 18720 ft 398 kts 289°
2026-05-09 02:57 24.08509 89.65396 19117 ft 400 kts 289°
2026-05-09 02:57 24.09536 89.62559 19523 ft 401 kts 289°
2026-05-09 02:57 24.10566 89.59712 19908 ft 403 kts 289°
2026-05-09 02:57 24.11596 89.56853 20292 ft 404 kts 288°
2026-05-09 02:58 24.12597 89.53978 20675 ft 405 kts 288°
2026-05-09 02:58 24.13574 89.51114 21063 ft 407 kts 287°
2026-05-09 02:58 24.14560 89.48205 21448 ft 408 kts 287°
2026-05-09 02:58 24.15550 89.45279 21851 ft 410 kts 287°
2026-05-09 02:59 24.16542 89.42347 22254 ft 412 kts 287°
2026-05-09 02:59 24.17541 89.39401 22668 ft 413 kts 287°
2026-05-09 02:59 24.18544 89.36443 23071 ft 415 kts 287°
2026-05-09 02:59 24.19553 89.33467 23483 ft 417 kts 287°
2026-05-09 03:00 24.20564 89.30486 23825 ft 419 kts 287°
2026-05-09 03:00 24.21579 89.27488 24172 ft 420 kts 286°
2026-05-09 03:00 24.22601 89.24469 24518 ft 422 kts 286°
2026-05-09 03:00 24.23624 89.21446 24869 ft 424 kts 286°
2026-05-09 03:01 24.24651 89.18407 25221 ft 426 kts 285°
2026-05-09 03:01 24.25681 89.15357 25573 ft 428 kts 285°
2026-05-09 03:01 24.26701 89.12335 25912 ft 430 kts 285°
2026-05-09 03:01 24.27739 89.09255 26254 ft 432 kts 285°
2026-05-09 03:02 24.28782 89.06159 26609 ft 433 kts 285°
2026-05-09 03:02 24.29828 89.03054 26950 ft 435 kts 285°
2026-05-09 03:02 24.30877 88.99935 27282 ft 437 kts 285°
2026-05-09 03:02 24.31933 88.96795 27610 ft 439 kts 284°
2026-05-09 03:03 24.32990 88.93646 27938 ft 441 kts 284°
2026-05-09 03:03 24.34051 88.90488 28263 ft 442 kts 284°
2026-05-09 03:03 24.35115 88.87315 28589 ft 444 kts 284°
2026-05-09 03:03 24.36183 88.84128 28920 ft 446 kts 284°
2026-05-09 03:04 24.37241 88.80970 29234 ft 447 kts 284°
2026-05-09 03:04 24.38313 88.77766 29535 ft 449 kts 284°
2026-05-09 03:04 24.39391 88.74540 29830 ft 451 kts 284°
2026-05-09 03:04 24.40472 88.71302 30091 ft 452 kts 284°
2026-05-09 03:05 24.41550 88.68050 30313 ft 454 kts 284°
2026-05-09 03:05 24.42680 88.64800 30588 ft 455 kts 286°
2026-05-09 03:05 24.43928 88.61606 30896 ft 455 kts 288°
2026-05-09 03:05 24.45241 88.58446 31200 ft 455 kts 288°
2026-05-09 03:06 24.46559 88.55339 31497 ft 453 kts 289°
2026-05-09 03:06 24.47893 88.52207 31798 ft 452 kts 288°
2026-05-09 03:06 24.49220 88.49075 31910 ft 452 kts 288°
2026-05-09 03:07 24.51862 88.42785 31953 ft 454 kts 288°
2026-05-09 03:07 24.54495 88.36483 31956 ft 454 kts 288°
2026-05-09 03:08 24.57129 88.30166 31959 ft 454 kts 288°
2026-05-09 03:08 24.59756 88.23857 31948 ft 454 kts 288°
2026-05-09 03:09 24.62379 88.17548 31961 ft 454 kts 288°
2026-05-09 03:09 24.64986 88.11267 31954 ft 454 kts 288°
2026-05-09 03:10 24.67606 88.04948 31958 ft 454 kts 288°
2026-05-09 03:10 24.70210 87.98617 31960 ft 454 kts 288°
2026-05-09 03:11 24.72813 87.92274 31959 ft 455 kts 288°
2026-05-09 03:11 24.75422 87.85925 31957 ft 455 kts 288°
2026-05-09 03:12 24.78039 87.79569 31959 ft 456 kts 288°
2026-05-09 03:12 24.80687 87.73274 31962 ft 457 kts 289°
2026-05-09 03:13 24.84722 87.63756 31965 ft 457 kts 289°
2026-05-09 03:13 24.87407 87.57410 31962 ft 457 kts 289°
2026-05-09 03:14 24.90086 87.51061 31959 ft 457 kts 289°
2026-05-09 03:14 24.92743 87.44755 31962 ft 456 kts 289°
2026-05-09 03:15 24.95414 87.38406 31959 ft 457 kts 289°
2026-05-09 03:15 24.98084 87.32051 31954 ft 456 kts 289°
2026-05-09 03:16 25.00754 87.25688 31952 ft 456 kts 289°
2026-05-09 03:16 25.03403 87.19363 31953 ft 456 kts 289°
2026-05-09 03:17 25.06064 87.13003 31950 ft 457 kts 289°
2026-05-09 03:17 25.08723 87.06636 31951 ft 457 kts 289°
2026-05-09 03:18 25.11381 87.00265 31951 ft 457 kts 289°
2026-05-09 03:18 25.14027 86.93887 31947 ft 457 kts 289°
2026-05-09 03:19 25.16666 86.87502 31948 ft 457 kts 289°
2026-05-09 03:19 25.19297 86.81151 31954 ft 457 kts 289°
2026-05-09 03:20 25.21948 86.74756 31942 ft 458 kts 289°
2026-05-09 03:20 25.24596 86.68362 31938 ft 458 kts 290°
2026-05-09 03:21 25.27243 86.61960 31940 ft 458 kts 290°
2026-05-09 03:21 25.29888 86.55553 31946 ft 458 kts 290°
2026-05-09 03:22 25.32532 86.49138 31943 ft 458 kts 290°
2026-05-09 03:22 25.35131 86.42710 31938 ft 456 kts 286°
2026-05-09 03:23 25.36766 86.36038 31939 ft 451 kts 278°
2026-05-09 03:23 25.37911 86.29226 31938 ft 450 kts 277°
2026-05-09 03:24 25.39062 86.22409 31934 ft 451 kts 278°
2026-05-09 03:24 25.40266 86.15603 31934 ft 451 kts 278°
2026-05-09 03:25 25.41488 86.08796 31930 ft 450 kts 278°
2026-05-09 03:25 25.42709 86.01994 31929 ft 450 kts 278°
2026-05-09 03:26 25.43923 85.95199 31930 ft 450 kts 278°
2026-05-09 03:26 25.45132 85.88413 31931 ft 449 kts 278°
2026-05-09 03:27 25.46330 85.81668 31934 ft 449 kts 278°
2026-05-09 03:27 25.47532 85.74886 31927 ft 449 kts 278°
2026-05-09 03:28 25.48730 85.68103 31928 ft 448 kts 278°
2026-05-09 03:28 25.49924 85.61327 31928 ft 448 kts 278°
2026-05-09 03:29 25.51111 85.54568 31930 ft 447 kts 278°
2026-05-09 03:29 25.52283 85.47816 31931 ft 446 kts 278°
2026-05-09 03:30 25.53446 85.41062 31930 ft 446 kts 278°
2026-05-09 03:30 25.54607 85.34365 31932 ft 445 kts 278°
2026-05-09 03:31 25.55778 85.27615 31937 ft 445 kts 278°
2026-05-09 03:31 25.56945 85.20881 31941 ft 445 kts 277°
2026-05-09 03:32 25.58107 85.14157 31940 ft 445 kts 278°
2026-05-09 03:32 25.60071 85.07675 31941 ft 453 kts 293°
2026-05-09 03:33 25.63352 85.01670 31940 ft 458 kts 298°
2026-05-09 03:33 25.66812 84.95737 31939 ft 458 kts 297°
2026-05-09 03:34 25.70182 84.89751 31935 ft 457 kts 296°
2026-05-09 03:34 25.73502 84.83722 31933 ft 458 kts 296°
2026-05-09 03:35 25.76809 84.77683 31932 ft 458 kts 296°
2026-05-09 03:35 25.80119 84.71634 31931 ft 459 kts 296°
2026-05-09 03:36 25.83412 84.65611 31929 ft 459 kts 297°
2026-05-09 03:36 25.86729 84.59538 31927 ft 460 kts 297°
2026-05-09 03:37 25.90044 84.53460 31926 ft 460 kts 297°
2026-05-09 03:37 25.93361 84.47371 31931 ft 461 kts 297°
2026-05-09 03:38 25.96680 84.41269 31927 ft 461 kts 297°
2026-05-09 03:38 26.00000 84.35158 31928 ft 462 kts 297°
2026-05-09 03:39 26.03316 84.29037 31927 ft 462 kts 297°
2026-05-09 03:39 26.06597 84.22946 31928 ft 462 kts 297°
2026-05-09 03:40 26.09908 84.16811 31924 ft 462 kts 297°
2026-05-09 03:40 26.13221 84.10678 31927 ft 463 kts 297°
2026-05-09 03:41 26.16535 84.04537 31928 ft 463 kts 297°
2026-05-09 03:41 26.19850 83.98387 31926 ft 463 kts 298°
2026-05-09 03:42 26.22607 83.93265 31926 ft 464 kts 298°
2026-05-09 03:42 26.26481 83.86056 31925 ft 464 kts 298°
2026-05-09 03:43 26.29241 83.80921 31927 ft 464 kts 298°
2026-05-09 03:43 26.33103 83.73748 31922 ft 464 kts 298°
2026-05-09 03:44 26.35867 83.68612 31925 ft 464 kts 298°
2026-05-09 03:44 26.39198 83.62417 31928 ft 465 kts 298°
2026-05-09 03:45 26.42522 83.56224 31926 ft 465 kts 298°
2026-05-09 03:45 26.45843 83.50029 31927 ft 465 kts 298°
2026-05-09 03:46 26.49166 83.43823 31930 ft 465 kts 298°
2026-05-09 03:46 26.52485 83.37613 31931 ft 466 kts 298°
2026-05-09 03:47 26.55783 83.31436 31931 ft 466 kts 298°
2026-05-09 03:47 26.59105 83.25204 31927 ft 467 kts 298°
2026-05-09 03:48 26.62430 83.18958 31929 ft 467 kts 298°
2026-05-09 03:48 26.65750 83.12713 31924 ft 467 kts 298°
2026-05-09 03:49 26.69065 83.06459 31921 ft 467 kts 298°
2026-05-09 03:49 26.72345 83.00235 31918 ft 468 kts 298°
2026-05-09 03:50 26.75674 82.93929 31917 ft 468 kts 298°
2026-05-09 03:50 26.78964 82.87701 31916 ft 468 kts 298°
2026-05-09 03:51 26.82279 82.81422 31920 ft 468 kts 298°
2026-05-09 03:51 26.85589 82.75142 31918 ft 468 kts 298°
2026-05-09 03:52 26.88900 82.68853 31917 ft 469 kts 299°
2026-05-09 03:52 26.92212 82.62550 31910 ft 469 kts 299°
2026-05-09 03:53 26.95521 82.56247 31916 ft 470 kts 299°
2026-05-09 03:53 26.98813 82.49966 31917 ft 470 kts 299°
2026-05-09 03:54 27.02125 82.43636 31914 ft 471 kts 299°
2026-05-09 03:54 27.05439 82.37294 31908 ft 471 kts 299°
2026-05-09 03:55 27.08755 82.30940 31919 ft 471 kts 299°
2026-05-09 03:55 27.12041 82.24615 31903 ft 472 kts 299°
2026-05-09 03:56 27.15238 82.18180 31919 ft 471 kts 292°
2026-05-09 03:56 27.17218 82.11187 31915 ft 471 kts 283°
2026-05-09 03:57 27.18652 82.04015 31903 ft 471 kts 282°
2026-05-09 03:57 27.20119 81.96839 31919 ft 471 kts 283°
2026-05-09 03:58 27.21657 81.89676 31911 ft 472 kts 283°
2026-05-09 03:58 27.23222 81.82497 31906 ft 473 kts 283°
2026-05-09 03:59 27.24775 81.75359 31920 ft 473 kts 283°
2026-05-09 03:59 27.26335 81.68160 31918 ft 474 kts 283°
2026-05-09 04:00 27.27891 81.60958 31925 ft 474 kts 284°
2026-05-09 04:00 27.29441 81.53760 31907 ft 474 kts 284°
2026-05-09 04:01 27.30990 81.46549 31919 ft 474 kts 284°
2026-05-09 04:01 27.32535 81.39336 31926 ft 475 kts 284°
2026-05-09 04:02 27.34080 81.32107 31920 ft 475 kts 284°
2026-05-09 04:02 27.35604 81.24927 31928 ft 475 kts 284°
2026-05-09 04:03 27.37123 81.17682 31913 ft 475 kts 284°
2026-05-09 04:03 27.38647 81.10448 31922 ft 475 kts 284°
2026-05-09 04:04 27.40176 81.03206 31923 ft 476 kts 284°
2026-05-09 04:04 27.41706 80.95953 31925 ft 476 kts 284°
2026-05-09 04:05 27.43231 80.88700 31921 ft 476 kts 284°
2026-05-09 04:05 27.44741 80.81495 31909 ft 475 kts 284°
2026-05-09 04:06 27.46256 80.74249 31903 ft 475 kts 284°
2026-05-09 04:06 27.47767 80.66999 31917 ft 475 kts 284°
2026-05-09 04:07 27.49272 80.59761 31919 ft 475 kts 284°
2026-05-09 04:07 27.50785 80.52511 31918 ft 474 kts 284°
2026-05-09 04:08 27.52333 80.45275 31913 ft 474 kts 284°
2026-05-09 04:08 27.53886 80.38094 31914 ft 476 kts 284°
2026-05-09 04:09 27.55453 80.30838 31910 ft 476 kts 285°
2026-05-09 04:09 27.57012 80.23590 31907 ft 476 kts 285°
2026-05-09 04:10 27.58571 80.16324 31907 ft 476 kts 285°
2026-05-09 04:10 27.60123 80.09071 31904 ft 476 kts 285°
2026-05-09 04:11 27.61669 80.01823 31907 ft 476 kts 285°
2026-05-09 04:11 27.63212 79.94567 31899 ft 475 kts 285°
2026-05-09 04:12 27.64741 79.87365 31898 ft 475 kts 285°
2026-05-09 04:12 27.66274 79.80118 31897 ft 475 kts 285°
2026-05-09 04:13 27.67807 79.72854 31892 ft 475 kts 285°
2026-05-09 04:13 27.69634 79.65721 31894 ft 472 kts 291°
2026-05-09 04:14 27.72079 79.58894 31893 ft 472 kts 294°
2026-05-09 04:14 27.74642 79.52079 31893 ft 471 kts 294°
2026-05-09 04:15 27.77162 79.45248 31891 ft 471 kts 294°
2026-05-09 04:15 27.79653 79.38400 31889 ft 471 kts 294°
2026-05-09 04:16 27.82131 79.31556 31888 ft 470 kts 294°
2026-05-09 04:16 27.84590 79.24752 31886 ft 470 kts 294°
2026-05-09 04:17 27.87059 79.17911 31886 ft 470 kts 294°
2026-05-09 04:17 27.89523 79.11073 31884 ft 469 kts 294°
2026-05-09 04:18 27.91985 79.04228 31884 ft 469 kts 294°
2026-05-09 04:18 27.94438 78.97396 31880 ft 469 kts 294°
2026-05-09 04:19 27.96872 78.90604 31879 ft 468 kts 294°
2026-05-09 04:19 27.99318 78.83767 31881 ft 468 kts 294°
2026-05-09 04:20 28.01744 78.76926 31883 ft 468 kts 294°
2026-05-09 04:20 28.04164 78.70088 31884 ft 467 kts 294°
2026-05-09 04:21 28.06581 78.63283 31884 ft 471 kts 294°
2026-05-09 04:22 28.10252 78.52941 31889 ft 471 kts 294°
2026-05-09 04:22 28.12692 78.46049 31888 ft 471 kts 294°
2026-05-09 04:23 28.15128 78.39154 31891 ft 471 kts 294°
2026-05-09 04:23 28.17556 78.32271 31890 ft 470 kts 294°
2026-05-09 04:24 28.19981 78.25384 31892 ft 470 kts 295°
2026-05-09 04:24 28.22387 78.18537 31890 ft 469 kts 295°
2026-05-09 04:25 28.24803 78.11651 31890 ft 469 kts 295°
2026-05-09 04:25 28.27214 78.04763 31898 ft 469 kts 295°
2026-05-09 04:26 28.29618 77.97884 31897 ft 469 kts 295°
2026-05-09 04:26 28.32007 77.91003 31901 ft 468 kts 295°
2026-05-09 04:27 28.34384 77.84120 31901 ft 468 kts 295°
2026-05-09 04:27 28.36768 77.77239 31903 ft 468 kts 295°
2026-05-09 04:28 28.39150 77.70369 31899 ft 467 kts 295°
2026-05-09 04:28 28.41481 77.63531 31901 ft 468 kts 294°
2026-05-09 04:29 28.43536 77.56507 31906 ft 469 kts 292°
2026-05-09 04:29 28.45483 77.49429 31906 ft 468 kts 292°
2026-05-09 04:30 28.47433 77.42371 31914 ft 467 kts 292°
2026-05-09 04:30 28.49392 77.35331 31924 ft 467 kts 292°
2026-05-09 04:31 28.51353 77.28290 31930 ft 467 kts 292°
2026-05-09 04:31 28.53310 77.21248 31935 ft 466 kts 292°
2026-05-09 04:32 28.54932 77.15398 31936 ft 466 kts 292°
2026-05-09 04:32 28.56827 77.08340 31937 ft 468 kts 290°
2026-05-09 04:33 28.58184 77.01052 31937 ft 471 kts 286°
2026-05-09 04:33 28.59514 76.92525 31929 ft 471 kts 286°
2026-05-09 04:34 28.60679 76.85195 31919 ft 470 kts 286°
2026-05-09 04:34 28.61866 76.77887 31911 ft 469 kts 287°
2026-05-09 04:35 28.62853 76.71829 31901 ft 469 kts 287°
2026-05-09 04:35 28.64036 76.64534 31901 ft 468 kts 287°
2026-05-09 04:36 28.65134 76.57222 31899 ft 468 kts 286°
2026-05-09 04:36 28.66182 76.49900 31893 ft 468 kts 286°
2026-05-09 04:37 28.67227 76.42594 31895 ft 467 kts 286°
2026-05-09 04:37 28.68273 76.35306 31895 ft 466 kts 286°
2026-05-09 04:38 28.69310 76.28072 31894 ft 465 kts 286°
2026-05-09 04:38 28.70349 76.20796 31892 ft 464 kts 286°
2026-05-09 04:39 28.71380 76.13543 31889 ft 464 kts 286°
2026-05-09 04:39 28.72406 76.06292 31900 ft 463 kts 287°
2026-05-09 04:40 28.73427 75.99050 31896 ft 463 kts 287°
2026-05-09 04:40 28.74438 75.91853 31889 ft 462 kts 287°
2026-05-09 04:41 28.74755 75.84444 31881 ft 476 kts 275°
2026-05-09 04:41 28.74079 75.76895 31885 ft 480 kts 271°
2026-05-09 04:42 28.73296 75.69344 31887 ft 479 kts 272°
2026-05-09 04:42 28.72589 75.61789 31882 ft 479 kts 273°
2026-05-09 04:43 28.71924 75.54241 31878 ft 478 kts 273°
2026-05-09 04:43 28.71267 75.46744 31880 ft 478 kts 273°
2026-05-09 04:44 28.70600 75.39209 31880 ft 478 kts 273°
2026-05-09 04:44 28.69927 75.31674 31873 ft 477 kts 273°
2026-05-09 04:45 28.69250 75.24150 31875 ft 477 kts 273°
2026-05-09 04:45 28.68573 75.16673 31872 ft 476 kts 273°
2026-05-09 04:46 28.67891 75.09179 31875 ft 475 kts 273°
2026-05-09 04:46 28.67205 75.01698 31873 ft 475 kts 273°
2026-05-09 04:47 28.66515 74.94223 31870 ft 474 kts 273°
2026-05-09 04:47 28.65800 74.86748 31873 ft 474 kts 273°
2026-05-09 04:48 28.65094 74.79330 31873 ft 473 kts 273°
2026-05-09 04:48 28.64392 74.71882 31871 ft 473 kts 273°
2026-05-09 04:49 28.63690 74.64444 31866 ft 472 kts 273°
2026-05-09 04:49 28.62985 74.57017 31868 ft 472 kts 273°
2026-05-09 04:50 28.62276 74.49591 31865 ft 471 kts 272°
2026-05-09 04:50 28.61563 74.42175 31864 ft 471 kts 272°
2026-05-09 04:51 28.60846 74.34764 31861 ft 471 kts 272°
2026-05-09 04:51 28.60130 74.27403 31861 ft 470 kts 272°
2026-05-09 04:52 28.59407 74.20008 31859 ft 470 kts 272°
2026-05-09 04:52 28.58679 74.12612 31858 ft 470 kts 272°
2026-05-09 04:53 28.57947 74.05210 31857 ft 470 kts 272°
2026-05-09 04:53 28.57205 73.97812 31851 ft 470 kts 272°
2026-05-09 04:54 28.56444 73.90416 31851 ft 470 kts 272°
2026-05-09 04:54 28.55695 73.83076 31849 ft 470 kts 272°
2026-05-09 04:55 28.55089 73.75702 31846 ft 466 kts 275°
2026-05-09 04:55 28.54771 73.68337 31846 ft 465 kts 276°
2026-05-09 04:56 28.54496 73.60986 31843 ft 465 kts 276°
2026-05-09 04:56 28.54199 73.53625 31842 ft 465 kts 275°
2026-05-09 04:57 28.53885 73.46267 31843 ft 466 kts 275°
2026-05-09 04:57 28.53564 73.38903 31841 ft 466 kts 275°
2026-05-09 04:58 28.53242 73.31598 31838 ft 466 kts 275°
2026-05-09 04:58 28.52913 73.24226 31839 ft 466 kts 275°
2026-05-09 04:59 28.52580 73.16855 31834 ft 466 kts 275°
2026-05-09 04:59 28.52244 73.09486 31839 ft 466 kts 275°
2026-05-09 05:00 28.51905 73.02159 31832 ft 467 kts 275°
2026-05-09 05:00 28.51561 72.94785 31830 ft 467 kts 274°
2026-05-09 05:01 28.51212 72.87409 31831 ft 467 kts 274°
2026-05-09 05:01 28.50843 72.80023 31824 ft 467 kts 274°
2026-05-09 05:02 28.50470 72.72696 31828 ft 467 kts 274°
2026-05-09 05:02 28.50104 72.65325 31828 ft 467 kts 274°
2026-05-09 05:03 28.49740 72.57956 31824 ft 467 kts 274°
2026-05-09 05:03 28.49372 72.50580 31825 ft 467 kts 274°
2026-05-09 05:04 28.48998 72.43198 31828 ft 467 kts 274°
2026-05-09 05:04 28.48622 72.35826 31824 ft 467 kts 274°
2026-05-09 05:05 28.48240 72.28442 31821 ft 468 kts 274°
2026-05-09 05:05 28.47853 72.21062 31822 ft 468 kts 273°
2026-05-09 05:06 28.47470 72.13662 31818 ft 468 kts 273°
2026-05-09 05:06 28.47094 72.06318 31830 ft 469 kts 273°
2026-05-09 05:07 28.46714 71.98916 31825 ft 469 kts 273°
2026-05-09 05:07 28.46330 71.91517 31827 ft 469 kts 273°
2026-05-09 05:08 28.45942 71.84116 31828 ft 469 kts 273°
2026-05-09 05:08 28.45550 71.76716 31822 ft 469 kts 273°
2026-05-09 05:09 28.45153 71.69309 31813 ft 470 kts 273°
2026-05-09 05:09 28.44752 71.61900 31823 ft 470 kts 273°
2026-05-09 05:10 28.44347 71.54485 31815 ft 470 kts 273°
2026-05-09 05:10 28.43937 71.47072 31809 ft 470 kts 272°
2026-05-09 05:11 28.43527 71.39712 31804 ft 470 kts 272°
2026-05-09 05:11 28.43109 71.32294 31806 ft 470 kts 272°
2026-05-09 05:12 28.42668 71.24883 31808 ft 470 kts 272°
2026-05-09 05:12 28.42227 71.17469 31813 ft 470 kts 272°
2026-05-09 05:13 28.41794 71.10054 31811 ft 470 kts 272°
2026-05-09 05:13 28.41360 71.02638 31805 ft 470 kts 272°
2026-05-09 05:14 28.40926 70.95271 31806 ft 470 kts 272°
2026-05-09 05:14 28.40484 70.87855 31806 ft 470 kts 272°
2026-05-09 05:15 28.40038 70.80442 31809 ft 470 kts 272°
2026-05-09 05:15 28.39588 70.73035 31806 ft 470 kts 272°
2026-05-09 05:16 28.39134 70.65621 31810 ft 470 kts 271°
2026-05-09 05:16 28.38676 70.58201 31813 ft 470 kts 271°
2026-05-09 05:17 28.38214 70.50786 31810 ft 471 kts 271°
2026-05-09 05:17 28.37747 70.43371 31810 ft 471 kts 271°
2026-05-09 05:18 28.37276 70.36003 31806 ft 471 kts 271°
2026-05-09 05:18 28.36944 70.28593 31808 ft 466 kts 278°
2026-05-09 05:19 28.38255 70.21531 31808 ft 454 kts 295°
2026-05-09 05:19 28.40803 70.14970 31809 ft 454 kts 298°
2026-05-09 05:20 28.43378 70.08421 31808 ft 455 kts 296°
2026-05-09 05:20 28.45815 70.01779 31821 ft 456 kts 295°
2026-05-09 05:21 28.48193 69.95094 31820 ft 456 kts 295°
2026-05-09 05:21 28.50560 69.88399 31815 ft 456 kts 295°
2026-05-09 05:22 28.52528 69.82831 31813 ft 456 kts 295°
2026-05-09 05:22 28.54901 69.76121 31813 ft 457 kts 295°
2026-05-09 05:23 28.57280 69.69419 31816 ft 457 kts 295°
2026-05-09 05:23 28.59663 69.62718 31816 ft 457 kts 294°
2026-05-09 05:24 28.62033 69.56046 31819 ft 458 kts 294°
2026-05-09 05:24 28.64414 69.49332 31823 ft 458 kts 294°
2026-05-09 05:25 28.66795 69.42603 31823 ft 458 kts 294°
2026-05-09 05:25 28.70363 69.32498 31826 ft 458 kts 294°
2026-05-09 05:26 28.72728 69.25756 31825 ft 458 kts 294°
2026-05-09 05:26 28.75062 69.19046 31829 ft 458 kts 294°
2026-05-09 05:27 28.77409 69.12299 31827 ft 458 kts 294°
2026-05-09 05:27 28.79761 69.05536 31836 ft 458 kts 293°
2026-05-09 05:28 28.82108 68.98782 31836 ft 458 kts 293°
2026-05-09 05:28 28.84453 68.92020 31835 ft 458 kts 293°
2026-05-09 05:29 28.86793 68.85260 31834 ft 458 kts 293°
2026-05-09 05:29 28.89129 68.78498 31832 ft 458 kts 293°
2026-05-09 05:30 28.91450 68.71765 31828 ft 458 kts 293°
2026-05-09 05:30 28.93463 68.64869 31823 ft 461 kts 283°
2026-05-09 05:31 28.94080 68.57549 31819 ft 465 kts 275°
2026-05-09 05:31 28.94323 68.50172 31817 ft 465 kts 275°
2026-05-09 05:32 28.94638 68.42796 31813 ft 465 kts 276°
2026-05-09 05:32 28.95019 68.35426 31811 ft 465 kts 276°
2026-05-09 05:33 28.95416 68.28052 31806 ft 465 kts 276°
2026-05-09 05:33 28.95805 68.20731 31806 ft 465 kts 276°
2026-05-09 05:34 28.96192 68.13345 31802 ft 466 kts 276°
2026-05-09 05:34 28.96572 68.05956 31805 ft 466 kts 276°
2026-05-09 05:35 28.96938 67.98566 31803 ft 466 kts 276°
2026-05-09 05:35 28.97309 67.91175 31807 ft 466 kts 276°
2026-05-09 05:36 28.97678 67.83829 31805 ft 466 kts 275°
2026-05-09 05:36 28.98048 67.76427 31807 ft 466 kts 275°
2026-05-09 05:37 28.98413 67.69029 31813 ft 466 kts 275°
2026-05-09 05:37 28.98774 67.61629 31823 ft 467 kts 275°
2026-05-09 05:38 28.99131 67.54218 31832 ft 467 kts 275°
2026-05-09 05:38 28.99484 67.46817 31844 ft 466 kts 275°
2026-05-09 05:39 28.99833 67.39409 31863 ft 466 kts 275°
2026-05-09 05:39 29.00176 67.32059 31883 ft 467 kts 275°
2026-05-09 05:40 29.00517 67.24643 31909 ft 467 kts 275°
2026-05-09 05:40 29.00854 67.17232 31923 ft 467 kts 275°
2026-05-09 05:41 29.01178 67.09820 31951 ft 467 kts 274°
2026-05-09 05:41 29.01486 67.02401 31967 ft 467 kts 274°
2026-05-09 05:42 29.01800 66.95021 31978 ft 467 kts 274°
2026-05-09 05:42 29.02120 66.87606 31991 ft 467 kts 274°
2026-05-09 05:43 29.02437 66.80189 31998 ft 468 kts 274°
2026-05-09 05:43 29.02750 66.72773 32006 ft 467 kts 274°
2026-05-09 05:44 29.03059 66.65348 32002 ft 468 kts 274°
2026-05-09 05:44 29.03374 66.57927 32001 ft 468 kts 274°
2026-05-09 05:45 29.03777 66.50510 31998 ft 468 kts 275°
2026-05-09 05:45 29.04213 66.43137 31991 ft 468 kts 275°
2026-05-09 05:46 29.04649 66.35722 31984 ft 468 kts 275°
2026-05-09 05:46 29.05076 66.28308 31977 ft 468 kts 275°
2026-05-09 05:47 29.05500 66.20879 31961 ft 468 kts 275°
2026-05-09 05:47 29.05918 66.13455 31951 ft 468 kts 275°
2026-05-09 05:48 29.06332 66.06035 31940 ft 467 kts 274°
2026-05-09 05:48 29.06742 65.98616 31922 ft 468 kts 274°
2026-05-09 05:49 29.07148 65.91198 31908 ft 467 kts 274°
2026-05-09 05:49 29.07547 65.83831 31891 ft 467 kts 274°
2026-05-09 05:50 29.07944 65.76409 31881 ft 467 kts 274°
2026-05-09 05:50 29.08338 65.68989 31879 ft 467 kts 274°
2026-05-09 05:51 29.08719 65.61564 31863 ft 467 kts 274°
2026-05-09 05:51 29.09083 65.54148 31859 ft 467 kts 274°
2026-05-09 05:52 29.09453 65.46774 31858 ft 467 kts 274°
2026-05-09 05:52 29.09828 65.39360 31856 ft 467 kts 274°
2026-05-09 05:53 29.10202 65.31929 31856 ft 467 kts 274°
2026-05-09 05:53 29.10548 65.24515 31857 ft 467 kts 273°
2026-05-09 05:54 29.10820 65.17071 31858 ft 467 kts 273°
2026-05-09 05:54 29.11079 65.09647 31854 ft 467 kts 272°
2026-05-09 05:55 29.11339 65.02219 31848 ft 467 kts 273°
2026-05-09 05:55 29.11598 64.94844 31844 ft 467 kts 272°
2026-05-09 05:56 29.11854 64.87419 31843 ft 467 kts 272°
2026-05-09 05:56 29.12107 64.79978 31840 ft 468 kts 272°
2026-05-09 05:57 29.12355 64.72549 31843 ft 468 kts 272°
2026-05-09 05:57 29.12600 64.65111 31842 ft 468 kts 272°
2026-05-09 05:58 29.12840 64.57679 31844 ft 468 kts 272°
2026-05-09 05:58 29.13076 64.50235 31847 ft 468 kts 272°
2026-05-09 05:59 29.13383 64.42810 31851 ft 468 kts 275°
2026-05-09 05:59 29.14074 64.35410 31856 ft 468 kts 277°
2026-05-09 06:00 29.14876 64.28068 31861 ft 467 kts 277°
2026-05-09 06:00 29.15668 64.20683 31868 ft 467 kts 277°
2026-05-09 06:01 29.16439 64.13296 31871 ft 468 kts 276°
2026-05-09 06:01 29.17201 64.05891 31873 ft 468 kts 276°
2026-05-09 06:02 29.17959 63.98493 31872 ft 468 kts 276°
2026-05-09 06:02 29.18706 63.91154 31874 ft 467 kts 276°
2026-05-09 06:03 29.19457 63.83749 31873 ft 467 kts 276°
2026-05-09 06:03 29.20201 63.76365 31871 ft 467 kts 276°
2026-05-09 06:04 29.20941 63.68980 31872 ft 467 kts 276°
2026-05-09 06:04 29.21677 63.61591 31864 ft 467 kts 276°
2026-05-09 06:05 29.22409 63.54198 31859 ft 467 kts 276°
2026-05-09 06:05 29.23127 63.46811 31854 ft 467 kts 276°
2026-05-09 06:06 29.23826 63.39458 31852 ft 467 kts 276°
2026-05-09 06:06 29.24539 63.32057 31844 ft 467 kts 276°
2026-05-09 06:07 29.25253 63.24668 31840 ft 466 kts 276°
2026-05-09 06:07 29.25965 63.17287 31840 ft 466 kts 276°
2026-05-09 06:08 29.26672 63.09901 31836 ft 466 kts 276°
2026-05-09 06:08 29.27373 63.02531 31835 ft 466 kts 276°
2026-05-09 06:09 29.28066 62.95197 31836 ft 465 kts 276°
2026-05-09 06:09 29.28759 62.87826 31840 ft 465 kts 276°
2026-05-09 06:10 29.29448 62.80452 31846 ft 465 kts 276°
2026-05-09 06:10 29.30132 62.73085 31848 ft 465 kts 275°
2026-05-09 06:11 29.30697 62.66960 31849 ft 465 kts 275°
2026-05-09 06:11 29.31483 62.58398 31854 ft 464 kts 275°
2026-05-09 06:12 29.32141 62.51032 31856 ft 464 kts 275°
2026-05-09 06:12 29.32789 62.43665 31862 ft 464 kts 275°
2026-05-09 06:13 29.33334 62.37546 31865 ft 464 kts 275°
2026-05-09 06:13 29.33992 62.30196 31867 ft 464 kts 275°
2026-05-09 06:14 29.34648 62.22835 31873 ft 463 kts 275°
2026-05-09 06:14 29.35299 62.15476 31880 ft 463 kts 275°
2026-05-09 06:15 29.35945 62.08130 31884 ft 463 kts 275°
2026-05-09 06:15 29.36585 62.00792 31891 ft 463 kts 275°
2026-05-09 06:16 29.37219 61.93492 31898 ft 462 kts 275°
2026-05-09 06:16 29.37852 61.86150 31906 ft 462 kts 275°
2026-05-09 06:17 29.38481 61.78802 31912 ft 462 kts 275°
2026-05-09 06:17 29.39102 61.71508 31919 ft 462 kts 275°
2026-05-09 06:18 29.39722 61.64174 31932 ft 462 kts 274°
2026-05-09 06:18 29.40326 61.56839 31943 ft 462 kts 274°
2026-05-09 06:19 29.40918 61.49495 31951 ft 461 kts 274°
2026-05-09 06:19 29.41519 61.42159 31968 ft 461 kts 274°
2026-05-09 06:20 29.42120 61.34841 31978 ft 461 kts 274°
2026-05-09 06:20 29.42894 61.27583 32007 ft 461 kts 277°
2026-05-09 06:21 29.43993 61.20324 32047 ft 461 kts 278°
2026-05-09 06:21 29.45132 61.13083 32069 ft 461 kts 278°
2026-05-09 06:22 29.46246 61.05844 32082 ft 461 kts 278°
2026-05-09 06:22 29.47480 60.98618 32081 ft 462 kts 283°
2026-05-09 06:23 29.49912 60.91789 32083 ft 467 kts 298°
2026-05-09 06:23 29.54001 60.86001 32084 ft 475 kts 313°
2026-05-09 06:24 29.59159 60.81183 32081 ft 479 kts 319°
2026-05-09 06:24 29.64473 60.76566 32077 ft 479 kts 318°
2026-05-09 06:25 29.69742 60.71866 32063 ft 478 kts 317°
2026-05-09 06:25 29.74970 60.67108 32050 ft 478 kts 317°
2026-05-09 06:26 29.80182 60.62339 32044 ft 479 kts 317°
2026-05-09 06:26 29.85364 60.57593 32042 ft 479 kts 317°
2026-05-09 06:27 29.90577 60.52815 32039 ft 479 kts 316°
2026-05-09 06:27 29.95802 60.48021 32037 ft 479 kts 316°
2026-05-09 06:28 30.01017 60.43229 32032 ft 479 kts 316°
2026-05-09 06:28 30.06235 60.38428 32026 ft 479 kts 316°
2026-05-09 06:29 30.11412 60.33659 32043 ft 479 kts 316°
2026-05-09 06:29 30.16652 60.28824 32033 ft 479 kts 316°
2026-05-09 06:30 30.21833 60.24030 32036 ft 480 kts 316°
2026-05-09 06:30 30.27034 60.19197 32038 ft 480 kts 316°
2026-05-09 06:31 30.32248 60.14356 32043 ft 480 kts 316°
2026-05-09 06:31 30.37467 60.09513 32033 ft 481 kts 316°
2026-05-09 06:32 30.42616 60.04730 32028 ft 480 kts 315°
2026-05-09 06:33 30.50319 59.97562 32023 ft 480 kts 315°
2026-05-09 06:33 30.55527 59.92705 32013 ft 480 kts 315°
2026-05-09 06:34 30.63302 59.85442 32004 ft 480 kts 315°
2026-05-09 06:34 30.68504 59.80574 31998 ft 480 kts 315°
2026-05-09 06:35 30.73702 59.75703 31991 ft 480 kts 315°
2026-05-09 06:35 30.78908 59.70817 31982 ft 480 kts 315°
2026-05-09 06:36 30.84108 59.65930 31985 ft 481 kts 314°
2026-05-09 06:36 30.89303 59.61022 31976 ft 481 kts 314°
2026-05-09 06:37 30.94464 59.56142 31977 ft 481 kts 314°
2026-05-09 06:37 30.99657 59.51236 31978 ft 481 kts 314°
2026-05-09 06:38 31.04857 59.46322 31971 ft 481 kts 314°
2026-05-09 06:38 31.10051 59.41406 31976 ft 481 kts 314°
2026-05-09 06:39 31.15247 59.36480 31981 ft 481 kts 314°
2026-05-09 06:39 31.20446 59.31544 31971 ft 481 kts 314°
2026-05-09 06:40 31.25640 59.26606 31978 ft 481 kts 314°
2026-05-09 06:40 31.30829 59.21665 31985 ft 480 kts 314°
2026-05-09 06:41 31.35971 59.16775 31990 ft 462 kts 313°
2026-05-09 06:41 31.40990 59.11974 31997 ft 472 kts 313°
2026-05-09 06:42 31.46089 59.07082 31997 ft 480 kts 313°
2026-05-09 06:42 31.51260 59.02127 32001 ft 480 kts 313°
2026-05-09 06:43 31.56429 58.97152 31999 ft 480 kts 313°
2026-05-09 06:43 31.61606 58.92181 32000 ft 480 kts 313°
2026-05-09 06:44 31.66777 58.87223 31999 ft 480 kts 313°
2026-05-09 06:44 31.71953 58.82256 31999 ft 480 kts 313°
2026-05-09 06:45 31.77121 58.77290 31998 ft 480 kts 313°
2026-05-09 06:45 31.82290 58.72313 31999 ft 480 kts 313°
2026-05-09 06:46 31.87417 58.67370 31996 ft 480 kts 313°
2026-05-09 06:46 31.92579 58.62386 31998 ft 480 kts 312°
2026-05-09 06:47 31.97742 58.57393 31997 ft 480 kts 312°
2026-05-09 06:47 32.02895 58.52402 31996 ft 480 kts 312°
2026-05-09 06:48 32.08057 58.47395 31992 ft 480 kts 312°
2026-05-09 06:48 32.13210 58.42389 31991 ft 480 kts 312°
2026-05-09 06:49 32.18365 58.37374 31987 ft 480 kts 312°
2026-05-09 06:49 32.23471 58.32387 31983 ft 480 kts 311°
2026-05-09 06:50 32.28609 58.27351 31976 ft 480 kts 311°
2026-05-09 06:50 32.33755 58.22313 31975 ft 480 kts 311°
2026-05-09 06:51 32.38901 58.17275 31967 ft 480 kts 311°
2026-05-09 06:51 32.44017 58.12207 31960 ft 479 kts 311°
2026-05-09 06:52 32.49065 58.07124 31956 ft 479 kts 310°
2026-05-09 06:52 32.54141 58.02002 31949 ft 479 kts 310°
2026-05-09 06:53 32.59223 57.96874 31941 ft 479 kts 310°
2026-05-09 06:53 32.64307 57.91739 31941 ft 480 kts 310°
2026-05-09 06:54 32.69385 57.86602 31935 ft 480 kts 310°
2026-05-09 06:54 32.74468 57.81452 31916 ft 480 kts 310°
2026-05-09 06:55 32.79549 57.76296 31918 ft 480 kts 310°
2026-05-09 06:55 32.84597 57.71166 31923 ft 480 kts 310°
2026-05-09 06:56 32.89676 57.65996 31918 ft 480 kts 310°
2026-05-09 06:56 32.94756 57.60817 31914 ft 480 kts 310°
2026-05-09 06:57 32.99834 57.55632 31908 ft 480 kts 310°
2026-05-09 06:57 33.04881 57.50465 31904 ft 481 kts 310°
2026-05-09 06:58 33.09949 57.45246 31906 ft 481 kts 310°
2026-05-09 06:58 33.15030 57.40020 31903 ft 482 kts 310°
2026-05-09 06:59 33.20150 57.34820 31900 ft 484 kts 311°
2026-05-09 06:59 33.25398 57.29726 31901 ft 486 kts 311°
2026-05-09 07:00 33.30671 57.24661 31894 ft 487 kts 311°
2026-05-09 07:00 33.35909 57.19611 31887 ft 487 kts 311°
2026-05-09 07:01 33.41206 57.14484 31881 ft 487 kts 311°
2026-05-09 07:01 33.46433 57.09412 31883 ft 487 kts 311°
2026-05-09 07:02 33.51692 57.04302 31875 ft 487 kts 311°
2026-05-09 07:02 33.56950 56.99184 31875 ft 486 kts 311°
2026-05-09 07:03 33.62202 56.94065 31875 ft 486 kts 311°
2026-05-09 07:03 33.66560 56.89812 31872 ft 486 kts 311°
2026-05-09 07:04 33.71839 56.84724 31878 ft 487 kts 311°
2026-05-09 07:04 33.77142 56.79660 31881 ft 487 kts 312°
2026-05-09 07:05 33.82449 56.74594 31884 ft 487 kts 312°
2026-05-09 07:05 33.87757 56.69514 31888 ft 488 kts 312°
2026-05-09 07:06 33.93071 56.64418 31889 ft 489 kts 312°
2026-05-09 07:06 33.98401 56.59296 31893 ft 491 kts 312°
2026-05-09 07:07 34.03743 56.54157 31892 ft 491 kts 312°
2026-05-09 07:07 34.09083 56.49011 31899 ft 492 kts 312°
2026-05-09 07:08 34.14424 56.43856 31897 ft 492 kts 312°
2026-05-09 07:08 34.19762 56.38694 31892 ft 492 kts 313°
2026-05-09 07:09 34.25104 56.33519 31890 ft 492 kts 313°
2026-05-09 07:09 34.30445 56.28338 31892 ft 492 kts 313°
2026-05-09 07:10 34.35775 56.23139 31888 ft 492 kts 312°
2026-05-09 07:10 34.41068 56.17967 31888 ft 492 kts 312°
2026-05-09 07:11 34.46401 56.12761 31885 ft 492 kts 312°
2026-05-09 07:11 34.51770 56.07517 31891 ft 492 kts 312°
2026-05-09 07:12 34.57070 56.02331 31895 ft 492 kts 312°
2026-05-09 07:12 34.62398 55.97111 31903 ft 492 kts 311°
2026-05-09 07:13 34.67721 55.91885 31901 ft 492 kts 311°
2026-05-09 07:13 34.73041 55.86653 31906 ft 492 kts 311°
2026-05-09 07:14 34.78359 55.81414 31917 ft 492 kts 311°
2026-05-09 07:14 34.83671 55.76172 31914 ft 491 kts 311°
2026-05-09 07:15 34.88974 55.70929 31916 ft 491 kts 311°
2026-05-09 07:15 34.94267 55.65688 31921 ft 490 kts 311°
2026-05-09 07:16 34.99556 55.60425 31917 ft 490 kts 311°
2026-05-09 07:16 35.04833 55.55157 31923 ft 490 kts 311°
2026-05-09 07:17 35.10077 55.49929 31927 ft 490 kts 311°
2026-05-09 07:17 35.15357 55.44665 31934 ft 490 kts 311°
2026-05-09 07:18 35.20640 55.39389 31937 ft 490 kts 311°
2026-05-09 07:18 35.25928 55.34098 31947 ft 490 kts 311°
2026-05-09 07:19 35.31174 55.28840 31953 ft 491 kts 311°
2026-05-09 07:19 35.36457 55.23535 31964 ft 492 kts 311°
2026-05-09 07:20 35.41751 55.18211 31979 ft 492 kts 311°
2026-05-09 07:20 35.47043 55.12879 31994 ft 493 kts 311°
2026-05-09 07:21 35.52339 55.07535 32007 ft 493 kts 310°
2026-05-09 07:21 35.57630 55.02186 32015 ft 492 kts 310°
2026-05-09 07:22 35.62465 54.96425 32021 ft 475 kts 299°
2026-05-09 07:22 35.66322 54.89924 32027 ft 469 kts 295°
2026-05-09 07:23 35.70003 54.83365 32032 ft 469 kts 295°
2026-05-09 07:23 35.73788 54.76792 32033 ft 471 kts 296°
2026-05-09 07:24 35.77620 54.70235 32031 ft 472 kts 296°
2026-05-09 07:24 35.81480 54.63655 32031 ft 473 kts 296°
2026-05-09 07:25 35.85317 54.57122 32026 ft 474 kts 296°
2026-05-09 07:25 35.89185 54.50526 32024 ft 475 kts 296°
2026-05-09 07:26 35.93061 54.43905 32028 ft 475 kts 296°
2026-05-09 07:26 35.96935 54.37271 32034 ft 476 kts 296°
2026-05-09 07:27 36.00811 54.30622 32042 ft 477 kts 296°
2026-05-09 07:27 36.04690 54.23956 32052 ft 478 kts 296°
2026-05-09 07:28 36.08567 54.17281 32058 ft 478 kts 296°
2026-05-09 07:28 36.12425 54.10625 32077 ft 479 kts 296°
2026-05-09 07:29 36.16309 54.03910 32094 ft 479 kts 296°
2026-05-09 07:29 36.20187 53.97192 32105 ft 480 kts 296°
2026-05-09 07:30 36.24069 53.90455 32132 ft 480 kts 296°
2026-05-09 07:30 36.27933 53.83712 32153 ft 480 kts 296°
2026-05-09 07:31 36.31786 53.76950 32165 ft 480 kts 296°
2026-05-09 07:31 36.35651 53.70187 32176 ft 479 kts 296°
2026-05-09 07:32 36.39510 53.63435 32188 ft 479 kts 296°
2026-05-09 07:32 36.43370 53.56668 32186 ft 481 kts 296°
2026-05-09 07:33 36.49166 53.46484 32187 ft 481 kts 296°
2026-05-09 07:34 36.53026 53.39685 32194 ft 481 kts 296°
2026-05-09 07:34 36.56857 53.32922 32191 ft 482 kts 296°
2026-05-09 07:35 36.60710 53.26107 32194 ft 482 kts 296°
2026-05-09 07:35 36.64581 53.19287 32192 ft 483 kts 297°
2026-05-09 07:36 36.68697 53.12621 32185 ft 486 kts 300°
2026-05-09 07:36 36.72938 53.06040 32188 ft 487 kts 300°
2026-05-09 07:37 36.77177 52.99456 32189 ft 487 kts 300°
2026-05-09 07:37 36.81375 52.92890 32190 ft 486 kts 300°
2026-05-09 07:38 36.85588 52.86271 32193 ft 486 kts 300°
2026-05-09 07:38 36.89796 52.79647 32196 ft 486 kts 300°
2026-05-09 07:39 36.93965 52.73074 32193 ft 485 kts 300°
2026-05-09 07:39 36.98147 52.66467 32190 ft 485 kts 300°
2026-05-09 07:40 37.02332 52.59842 32197 ft 484 kts 301°
2026-05-09 07:40 37.06505 52.53224 32193 ft 483 kts 301°
2026-05-09 07:41 37.10659 52.46617 32194 ft 482 kts 301°
2026-05-09 07:41 37.14794 52.40001 32188 ft 481 kts 301°
2026-05-09 07:42 37.18897 52.33446 32191 ft 481 kts 301°
2026-05-09 07:42 37.23031 52.26848 32189 ft 480 kts 301°
2026-05-09 07:43 37.27157 52.20254 32188 ft 480 kts 301°
2026-05-09 07:43 37.31272 52.13665 32192 ft 479 kts 301°
2026-05-09 07:44 37.35379 52.07074 32191 ft 478 kts 301°
2026-05-09 07:44 37.39468 52.00499 32187 ft 477 kts 301°
2026-05-09 07:45 37.43551 51.93922 32187 ft 476 kts 301°
2026-05-09 07:45 37.47595 51.87393 32194 ft 475 kts 301°
2026-05-09 07:46 37.51661 51.80817 32188 ft 475 kts 301°
2026-05-09 07:46 37.55713 51.74249 32190 ft 474 kts 301°
2026-05-09 07:47 37.59753 51.67678 32193 ft 473 kts 300°
2026-05-09 07:47 37.63769 51.61080 32186 ft 473 kts 300°
2026-05-09 07:48 37.67757 51.54532 32189 ft 472 kts 300°
2026-05-09 07:48 37.71765 51.47960 32191 ft 472 kts 300°
2026-05-09 07:49 37.75768 51.41388 32190 ft 471 kts 300°
2026-05-09 07:49 37.79760 51.34821 32192 ft 470 kts 300°
2026-05-09 07:50 37.83741 51.28258 32189 ft 470 kts 300°
2026-05-09 07:50 37.87694 51.21727 32188 ft 470 kts 300°
2026-05-09 07:51 37.91665 51.15155 32192 ft 470 kts 300°
2026-05-09 07:51 37.95644 51.08573 32188 ft 470 kts 301°
2026-05-09 07:52 38.00292 51.02588 32188 ft 487 kts 316°
2026-05-09 07:52 38.06381 50.98490 32189 ft 507 kts 334°
2026-05-09 07:53 38.13229 50.96189 32186 ft 514 kts 340°
2026-05-09 07:53 38.20165 50.94019 32185 ft 512 kts 338°
2026-05-09 07:54 38.23160 50.92977 32187 ft 512 kts 337°